BEIDOU 1D

Satellite information

Favourite Embed

Satellite Type and Status

PAYLOADIN ORBIT

Key statistics

Satellite BEIDOU 1D at a glance.

Uptime

6890

Days in orbit

Revolutions

≈ 1.0

Per day

Orbit

OTHER

Other

Inclination

9.5

Latest

Satellite identification and parameters

Extended collection of information and parameters for BEIDOU 1D.

Object identification

Identified? True

Debris? False

Object name: BEIDOU 1D

International designator: 2007-003A

Object number (NORAD): 30323

Object ID (CCSDS): 30323

Country: PEOPLES REPUBLIC OF CHINA (PRC)

Current information (Y/N): Y

RCS size: LARGE

Orbital parameters

Period: 1452.221 minutes

Inclination: 9.4562 deg

SMA: 42479.754 km

Apoapsis: 36342.249 km

Periapsis: 35860.989 km

RAAN: 58.9094 deg

Eccentricy: 0.00566459

Argument of periapsis: 266.0475 deg

Mean anomaly: 263.7293 deg

Mean motion: 0.99158459 rev/day

Mean motion (dot): -0.0000024 rev/day2

B* drag term: 0.0 1/REarth

Two-line elements (TLE)

Creation date: Dec. 14, 2025, 3:07 a.m.

Reference frame: TEME

Reference center: EARTH

Epoch: Dec. 13, 2025, 11:36 a.m. UTC

TLE line 0: 0 BEIDOU 1D

TLE line 1: 1 30323U 07003A 25347.48343606 -.00000240 00000-0 00000-0 0 9993

TLE line 2: 2 30323 9.4562 58.9094 0056646 266.0475 263.7293 0.99158459 68861

Live tracking on map

Real-time ground track for satellite BEIDOU 1D.

In-orbit conjunctions

A list of the most updated potential collisions computed for object BEIDOU 1D.

Target Orbit TCA Probability of collision Miss distance Type
ITALSAT 1 OTHER 2025-11-11 10:54:36 TBA 3458.0 (m) PAYLOAD

Associated space launch

Last satellite of the 1st phase of the Chinese Beidou navigation system

BEIDOU 1D was lifted into orbit during the mission ‘Long March 3A | Beidou Daohang Shiyan Wei. 4’, on board a Long March 3A space rocket.

The launch took place on Feb. 2, 2007, 4:28 p.m. from Launch Complex 2 (LC-2).

For more information about the launch, click the button.

Launch to space Long March 3A | Beidou Daohang Shiyan Wei. 4
Long March 3A | Beidou Daohang Shiyan Wei. 4

Agency: N/A

Status: Launch Successful

Launch date: Feb. 2, 2007, 4:28 p.m. UTC

Rocket: Long March 3A

Launch pad: Launch Complex 2 (LC-2)

Location: Xichang Satellite Launch Center, People's Republic of China

...

Latest news about this satellite

There are no fresh news available about this satellite. Check back as we update our databases every day.


Newsletter sign-up

Weekly statistics, charts and insights to help you stay on top of the space industry.